Theta_e
299 299 298 299 299 299 299 298 299 302 303 305 304 307 313 314 316 315 316 315 316 317 321 323 323 322 321 319 320 319 320 321 320 321 320 320 321 322 321 324 323 321 320 320
299 298 299 299 299 299 299 298 298 300 302 304 305 306 312 314 317 316 316 316 315 316 316 322 322 322 320 320 322 322 321 323 324 323 320 319 322 320 321 320 319 321 322 322
298 299 299 299 299 299 299 297 295 300 300 301 306 306 307 313 312 316 317 315 316 316 316 316 316 322 322 320 320 321 321 322 321 323 322 320 321 319 319 320 320 320 321 321
298 297 298 299 299 299 299 299 298 299 303 302 302 306 310 312 314 315 317 317 316 316 317 316 317 320 323 322 321 321 321 323 321 320 320 320 320 318 315 316 316 317 318 317
297 297 298 300 299 300 299 298 299 300 301 302 304 306 309 311 315 314 318 318 317 316 316 317 317 321 322 322 322 323 321 323 322 323 320 321 322 319 317 317 317 316 316 317
297 297 298 300 300 299 300 298 299 300 300 302 303 306 305 311 314 313 316 317 317 317 316 316 315 316 319 320 322 322 321 322 321 324 321 320 321 319 318 318 317 317 318 318
297 297 297 299 300 300 299 299 299 300 299 302 303 304 309 306 313 315 316 316 317 316 314 316 316 316 318 319 320 318 320 319 317 320 319 324 321 318 317 317 317 316 317 320
297 297 298 296 300 300 299 299 300 300 300 300 301 304 309 312 312 316 315 315 315 315 316 316 317 317 317 317 318 319 318 318 317 321 318 318 318 319 320 321 319 321 319 320
297 297 297 297 298 301 300 299 299 300 301 300 301 302 304 312 314 315 315 313 313 316 317 314 320 321 319 319 318 317 318 318 319 319 319 321 317 318 317 317 320 320 321 320
298 297 297 297 298 299 301 300 299 299 300 300 303 302 306 310 313 315 315 315 316 315 316 318 318 320 317 320 320 320 320 317 320 315 315 314 317 319 318 321 319 320 318 317
298 298 298 298 298 298 298 301 299 299 299 300 304 305 307 305 311 317 314 317 315 315 319 319 314 315 318 318 318 319 320 321 319 317 317 320 316 317 318 317 318 316 315 315
298 298 298 297 297 299 299 300 299 299 299 301 301 302 304 304 310 314 311 316 316 317 318 314 312 315 311 317 322 316 320 319 319 319 319 317 318 318 313 314 314 314 314 313
297 297 298 299 298 298 300 300 299 299 300 299 300 300 303 305 305 311 313 307 310 311 308 311 310 316 312 317 318 318 317 317 318 318 318 319 312 310 311 310 312 312 313 313
298 297 296 296 296 297 297 298 299 299 301 302 300 300 303 303 303 308 309 306 301 302 305 305 307 312 306 312 313 317 314 318 318 319 318 314 312 310 311 311 311 312 311 311
297 297 298 301 304 300 297 298 300 299 303 299 300 298 300 303 303 304 305 306 305 305 305 305 308 302 305 304 307 310 310 314 319 320 313 313 313 310 307 307 307 309 311 311
299 298 302 304 307 299 299 301 301 301 301 299 301 296 301 303 304 304 303 303 301 301 303 302 300 303 307 311 312 307 309 310 311 312 310 310 310 309 307 306 306 306 308 309
300 298 301 301 300 300 301 301 301 301 301 298 301 301 299 300 303 303 302 301 301 301 299 301 302 304 305 306 310 306 309 309 309 309 308 310 308 307 305 305 305 305 303 300
300 299 299 301 302 301 300 301 302 301 298 297 301 300 301 301 301 302 301 298 297 298 299 299 302 302 302 306 304 304 303 303 305 306 303 302 302 302 302 302 302 301 299 297
300 299 300 299 298 297 300 300 300 302 299 301 301 302 304 301 300 301 301 300 302 298 301 302 303 303 304 303 302 302 303 301 303 301 302 302 302 300 300 300 299 297 296 294
299 299 297 297 298 299 299 298 298 297 298 300 301 299 303 300 299 301 299 298 301 302 301 301 302 303 302 302 301 301 301 301 300 301 301 300 299 299 298 298 297 297 296 294
297 297 298 299 299 297 296 299 299 297 302 300 299 300 301 300 299 298 298 299 298 303 301 301 303 303 302 301 302 301 299 299 299 298 299 299 299 297 297 295 294 293 292 291
297 298 298 298 296 296 300 300 300 302 303 300 301 301 300 300 299 300 296 300 300 304 298 300 304 302 302 301 299 297 297 297 297 297 297 296 296 295 294 292 291 290 289 288
300 293 293 293 294 299 302 301 303 302 301 300 300 301 300 299 299 299 300 300 298 299 295 301 302 301 300 298 296 295 294 294 294 293 293 292 292 291 291 290 289 288 287 286
294 294 295 294 301 302 301 300 300 298 299 300 298 297 300 295 300 298 300 300 300 297 298 302 299 300 297 295 294 294 292 292 292 292 291 290 290 289 288 288 288 287 286 285
295 296 300 300 298 298 298 296 296 296 295 296 296 296 297 297 298 298 299 298 299 301 301 298 296 297 295 294 293 292 291 291 291 291 290 289 288 288 287 287 286 284 283 284
297 297 297 293 292 298 297 293 293 295 289 294 294 295 297 299 298 300 298 301 300 299 296 293 296 296 294 293 292 292 291 291 291 290 289 289 288 288 286 285 284 282 282 282
299 294 289 289 289 290 298 292 292 296 295 294 296 297 299 294 298 300 297 296 296 292 291 294 296 295 292 291 291 291 291 291 291 290 288 287 286 285 283 282 280 281 281 280
Wind_Speed
30 35 35 32 28 23 16 5 6 8 19 6 4 10 10 26 23 30 20 4 21 5 8 10 12 14 11 11 12 15 10 4 4 10 4 1 3 8 7 5 6 3 4 6
30 32 36 34 30 28 14 4 5 14 7 8 12 17 18 22 17 25 27 20 5 15 6 3 10 8 7 11 15 16 10 6 1 8 5 1 6 7 5 4 3 6 5 6
25 23 31 35 34 33 27 3 3 6 6 12 12 18 21 18 26 19 26 32 22 10 6 7 5 8 2 8 12 10 15 5 8 10 6 5 5 6 6 7 4 4 6 5
27 30 29 35 38 37 30 7 5 5 6 13 23 19 16 28 16 22 21 26 19 21 11 9 8 3 3 2 3 6 10 8 6 6 6 4 4 5 9 6 5 6 6 9
30 28 32 35 43 42 30 9 5 5 11 12 19 23 15 25 27 19 27 24 34 19 22 6 5 6 5 5 4 7 3 4 5 5 6 7 5 8 7 4 4 6 5 13
29 29 31 29 45 47 18 20 9 5 10 17 16 17 30 24 28 30 32 40 16 20 24 3 5 4 5 5 8 7 8 7 5 5 4 4 6 9 11 7 5 8 9 13
32 32 29 30 44 51 32 19 10 8 14 11 14 25 25 36 28 33 31 21 27 20 4 7 3 6 5 2 5 4 4 5 3 4 3 4 6 4 5 7 8 9 6 5
37 36 34 32 35 49 40 26 12 8 11 17 22 21 20 24 32 28 21 12 13 8 6 5 3 4 6 4 5 6 4 4 3 4 4 5 5 3 6 5 6 6 5 6
41 41 37 37 38 47 53 39 31 8 8 17 24 22 24 17 20 19 23 8 8 6 3 3 7 12 7 7 2 3 6 5 4 3 4 11 4 4 4 5 15 7 7 3
42 40 38 41 38 40 48 35 42 17 10 18 11 19 14 16 17 12 6 12 14 13 7 4 4 9 7 10 13 6 4 1 11 3 5 6 5 10 6 6 10 5 5 5
36 38 40 42 38 40 41 35 47 34 11 14 9 15 12 18 16 12 9 8 2 6 12 12 5 6 10 2 6 10 9 8 4 3 3 15 7 3 9 4 2 6 5 4
29 31 34 37 43 42 50 20 38 42 8 4 19 32 32 18 32 17 3 17 7 7 7 4 4 1 1 6 14 2 10 8 7 8 7 4 3 4 5 4 6 3 5 3
25 33 31 30 34 40 38 38 35 24 10 7 13 6 11 20 21 27 7 2 6 4 2 4 3 5 4 5 8 5 2 3 4 3 3 6 10 6 7 7 6 4 2 3
19 20 26 35 45 50 51 25 33 34 3 4 4 5 11 9 12 17 6 8 7 4 3 3 3 3 1 3 2 4 3 4 6 1 5 11 8 6 6 5 3 3 4 4
12 20 28 35 34 69 54 33 34 43 4 4 2 4 11 5 11 16 21 12 7 3 3 2 2 2 3 2 3 3 4 6 7 8 6 5 5 7 5 3 2 6 9 7
9 24 28 8 32 75 46 9 25 42 15 2 3 2 5 15 16 18 14 6 5 4 3 3 2 1 2 4 4 3 4 4 4 5 5 6 7 7 6 7 10 14 11 13
18 26 36 47 64 50 6 4 20 35 20 3 3 1 4 6 2 3 5 9 4 2 2 1 2 1 2 2 3 4 5 4 4 6 6 2 3 4 11 11 12 7 6 9
15 21 28 28 37 29 13 15 30 22 8 2 2 2 2 4 3 4 2 3 2 2 2 2 2 2 2 3 4 4 4 4 4 6 6 4 4 4 4 5 5 8 8 6
13 18 12 10 13 4 2 11 16 18 7 6 3 4 3 2 3 3 3 2 3 2 3 2 2 2 3 5 6 7 5 5 8 7 9 10 11 9 8 7 8 9 7 7
21 10 4 3 3 6 7 6 2 3 2 2 3 1 3 3 2 2 3 2 2 2 0 2 2 1 4 5 5 7 6 6 9 9 6 5 8 8 8 9 8 8 7 7
7 4 3 5 9 3 3 3 4 3 3 3 2 3 4 1 4 3 1 2 1 3 3 3 3 2 3 5 9 8 9 10 11 11 11 9 9 8 8 8 7 7 9 6
5 3 4 6 4 3 5 2 1 2 2 2 2 3 2 2 3 3 1 3 1 3 4 3 3 2 5 10 11 8 9 11 12 11 11 10 10 10 9 8 7 10 10 11
4 3 4 3 4 8 4 2 1 1 2 2 2 4 2 2 3 3 2 3 1 7 3 2 2 5 7 9 10 10 9 11 12 10 11 13 12 15 15 10 13 14 13 11
3 4 7 3 4 4 2 1 1 1 4 7 3 3 3 1 3 1 4 2 3 2 2 4 3 9 10 7 7 11 11 12 11 10 9 10 12 12 15 14 15 15 11 10
3 4 4 5 3 2 2 2 2 4 2 3 3 3 3 3 4 2 3 3 1 3 3 3 5 11 11 9 7 10 11 11 8 8 9 10 13 11 11 13 11 11 13 14
3 5 3 1 3 4 4 4 2 2 2 2 3 3 3 3 3 3 1 4 3 3 2 3 9 10 9 9 9 9 9 8 8 10 12 13 11 10 11 12 13 15 17 17
3 2 2 3 2 2 2 1 2 3 3 2 3 4 2 1 2 1 2 4 3 2 1 4 9 12 10 9 11 9 9 8 11 11 11 11 13 17 14 8 11 13 16 17
Wind_Direction
262 250 245 242 236 228 219 224 242 181 165 194 203 236 228 201 215 217 246 287 228 243 223 192 206 197 201 186 156 187 201 169 214 236 236 82 238 202 154 163 215 208 169 257
262 257 241 234 228 214 185 221 237 253 230 224 223 210 224 220 200 210 222 234 253 233 222 213 209 203 225 161 172 170 170 205 90 323 348 137 207 204 183 111 87 198 198 260
263 256 244 236 224 212 196 185 242 193 227 244 259 230 245 206 224 224 213 229 242 281 246 221 246 219 237 190 194 168 159 154 173 200 201 157 184 185 182 152 148 203 218 254
262 256 255 242 224 210 192 199 210 217 206 222 230 240 216 215 206 209 220 221 224 222 243 231 211 193 169 50 163 155 177 195 181 218 212 150 196 200 171 167 178 182 212 228
258 263 254 245 225 208 202 213 195 220 254 241 223 226 235 245 213 198 209 223 214 217 221 211 188 148 204 196 168 164 211 229 157 207 207 178 211 222 217 156 209 258 249 269
257 257 255 246 217 202 205 208 219 217 238 238 241 243 229 241 218 217 210 213 205 213 224 199 304 266 177 163 160 176 167 152 131 228 156 115 300 205 181 194 177 193 228 250
258 254 256 254 219 205 206 205 195 215 230 236 231 232 236 228 235 210 214 198 207 222 220 129 8 23 11 127 112 126 135 101 85 166 104 215 255 247 161 164 188 203 254 258
255 251 245 251 232 210 204 201 190 203 227 234 245 240 251 233 227 223 213 203 201 128 100 107 80 313 339 236 210 140 149 109 92 156 202 308 262 224 138 155 259 208 221 291
256 252 248 242 239 218 207 212 208 214 226 233 235 237 229 242 225 213 210 220 206 127 119 127 154 203 197 196 247 195 119 114 124 120 167 231 115 184 166 87 266 162 155 161
255 254 245 243 238 223 214 208 202 203 226 241 219 226 238 235 235 215 192 180 208 188 198 196 170 212 192 190 194 155 130 41 202 164 233 286 258 135 120 185 269 136 131 134
253 248 243 241 229 228 227 216 194 195 219 237 213 245 225 241 241 201 188 150 205 167 192 207 197 209 208 151 170 173 162 163 178 113 234 261 194 96 202 211 66 120 123 136
249 244 241 236 246 232 217 218 192 200 213 261 233 261 259 286 229 205 247 180 169 168 170 197 153 147 115 162 223 94 207 188 172 173 211 199 21 80 47 68 109 98 109 81
253 260 246 229 215 216 208 197 178 173 209 245 272 260 251 232 239 200 174 318 161 170 87 148 155 190 132 183 220 181 271 102 174 98 154 116 101 78 73 71 74 64 38 304
261 261 262 251 239 218 209 186 173 181 146 221 243 320 270 265 214 180 179 136 95 88 46 102 139 143 132 183 159 185 156 123 153 172 100 107 85 94 99 71 353 305 274 246
271 281 296 287 243 197 189 180 176 177 215 158 133 337 291 41 141 125 137 132 113 83 59 66 162 135 119 30 54 239 193 170 188 220 118 88 119 143 139 144 267 275 258 252
331 341 3 356 171 154 151 156 185 177 180 82 125 274 294 56 96 93 70 65 70 80 113 147 145 297 134 140 194 238 196 154 121 142 153 150 172 188 195 207 213 232 239 244
21 15 46 94 119 132 134 141 141 178 143 124 190 150 354 330 305 60 64 49 67 83 106 94 102 74 72 128 192 197 187 156 117 125 111 95 147 222 228 229 245 232 106 57
22 30 39 85 110 95 79 89 130 136 82 82 207 100 62 308 41 92 60 87 81 45 116 112 119 105 204 195 202 117 128 119 188 207 185 195 128 115 59 57 78 79 62 56
3 353 28 48 33 47 50 75 103 158 171 168 165 127 152 56 40 80 60 91 82 71 54 51 96 130 225 208 163 172 177 182 151 99 90 82 82 73 54 60 65 89 84 77
333 24 41 64 31 316 325 347 32 32 335 49 78 99 122 111 98 83 104 37 87 89 148 98 73 308 269 239 170 141 151 138 136 117 105 91 90 86 80 76 80 93 90 83
19 26 32 286 342 66 46 42 47 346 39 40 50 55 114 17 100 126 71 150 139 110 176 126 156 233 226 135 90 88 91 86 76 91 98 100 122 126 116 103 89 86 84 87
26 357 347 339 26 35 72 44 6 42 100 102 93 110 92 61 89 86 341 101 149 138 145 102 165 245 90 110 107 97 98 100 98 103 110 107 107 112 111 104 100 100 98 90
353 35 33 36 328 40 42 15 47 95 93 110 121 92 101 42 52 63 93 83 122 118 57 185 220 134 115 120 117 105 98 101 105 102 102 105 104 106 109 106 103 99 90 95
55 42 16 62 10 31 8 313 15 323 97 107 104 67 85 58 63 147 85 56 106 66 113 221 169 153 138 125 128 124 124 122 118 115 115 110 103 98 96 104 113 111 103 101
57 59 32 33 334 324 319 317 60 43 63 79 55 48 73 26 83 31 97 67 151 199 214 211 158 143 143 140 128 125 131 131 117 114 110 109 111 110 107 116 116 117 114 114
50 52 51 330 41 8 33 22 54 354 93 80 52 77 59 46 107 76 134 141 197 244 209 147 133 135 136 137 134 127 124 124 121 121 125 120 117 123 121 121 117 117 111 104
47 10 9 101 112 223 27 41 341 322 56 65 68 65 38 81 58 105 174 188 220 206 123 126 144 145 142 131 134 137 137 135 130 125 126 123 134 131 119 111 122 116 114 107